TimeEST,TemperatureF,Dew PointF,Humidity,Sea Level PressureIn,VisibilityMPH,Wind Direction,Wind SpeedMPH,Gust SpeedMPH,PrecipitationIn,Events,Conditions,WindDirDegrees,DateUTC
12:22 AM,30.2,24.8,80,30.14,10.0,Variable,6.9,-,N/A,,Mostly Cloudy,0,2013-02-27 05:22:00
12:51 AM,30.9,25.0,79,30.18,10.0,SSE,10.4,-,N/A,,Overcast,160,2013-02-27 05:51:00
1:15 AM,30.2,24.8,80,30.13,10.0,South,6.9,-,N/A,,Scattered Clouds,170,2013-02-27 06:15:00
1:51 AM,30.9,25.0,79,30.16,10.0,South,5.8,-,N/A,,Partly Cloudy,190,2013-02-27 06:51:00
2:51 AM,30.9,25.0,79,30.14,10.0,South,8.1,-,N/A,,Partly Cloudy,170,2013-02-27 07:51:00
3:51 AM,32.0,25.0,75,30.14,10.0,South,8.1,-,N/A,,Overcast,180,2013-02-27 08:51:00
4:51 AM,30.9,25.0,79,30.10,10.0,South,4.6,-,N/A,,Overcast,170,2013-02-27 09:51:00
5:51 AM,30.0,26.1,85,30.07,2.0,SSE,8.1,-,0.00,Snow,Light Snow,150,2013-02-27 10:51:00
6:10 AM,30.2,26.6,86,30.02,1.8,South,5.8,-,0.00,Snow,Light Snow,170,2013-02-27 11:10:00
6:33 AM,30.2,28.4,93,30.01,2.5,SSE,3.5,-,0.01,Snow,Light Snow,150,2013-02-27 11:33:00
6:41 AM,30.2,28.4,93,30.01,4.0,SE,3.5,-,0.01,Snow,Light Snow,130,2013-02-27 11:41:00
6:51 AM,30.2,28.4,93,30.01,3.0,SSE,3.5,-,N/A,Snow,Light Snow,150,2013-02-27 11:51:00
7:49 AM,30.2,28.4,93,29.98,7.0,Calm,Calm,-,0.00,,Overcast,0,2013-02-27 12:49:00
7:51 AM,30.0,28.0,92,30.03,7.0,Calm,Calm,-,0.00,,Overcast,0,2013-02-27 12:51:00
8:13 AM,30.2,28.4,93,29.97,1.8,Calm,Calm,-,0.00,Snow,Light Snow,0,2013-02-27 13:13:00
8:19 AM,30.2,28.4,93,29.97,1.0,Calm,Calm,-,0.00,Snow,Light Snow,0,2013-02-27 13:19:00
8:27 AM,30.2,28.4,93,29.97,0.8,Calm,Calm,-,0.00,Snow,Light Snow,0,2013-02-27 13:27:00
8:32 AM,30.2,28.4,93,29.97,1.2,Calm,Calm,-,0.00,Snow,Light Snow,0,2013-02-27 13:32:00
8:35 AM,30.2,28.4,93,29.96,2.0,Calm,Calm,-,0.00,Snow,Light Snow,0,2013-02-27 13:35:00
8:46 AM,30.2,28.4,93,29.96,4.0,Calm,Calm,-,0.00,Snow,Light Snow,0,2013-02-27 13:46:00
8:51 AM,30.2,28.4,93,29.96,7.0,Calm,Calm,-,N/A,Snow,Light Snow,0,2013-02-27 13:51:00
9:51 AM,33.1,30.0,89,29.96,10.0,Calm,Calm,-,N/A,,Overcast,0,2013-02-27 14:51:00
10:23 AM,33.8,30.2,87,29.90,2.5,East,3.5,-,0.00,Snow,Light Snow,90,2013-02-27 15:23:00
10:51 AM,33.1,32.0,96,29.94,2.0,East,3.5,-,0.01,Snow,Light Snow,80,2013-02-27 15:51:00
11:06 AM,33.8,32.0,93,29.89,5.0,ESE,3.5,-,0.00,Snow,Light Snow,110,2013-02-27 16:06:00
11:30 AM,35.6,30.2,81,29.88,1.8,SE,8.1,-,0.00,Snow,Light Snow,130,2013-02-27 16:30:00
11:32 AM,35.6,30.2,81,29.88,1.2,SE,8.1,-,0.01,Snow,Light Snow,130,2013-02-27 16:32:00
11:34 AM,33.8,30.2,87,29.88,0.8,ESE,6.9,-,0.01,Snow,Light Snow,120,2013-02-27 16:34:00
11:51 AM,33.1,32.0,96,29.91,0.5,ESE,4.6,-,0.04,Fog-Snow,Snow,110,2013-02-27 16:51:00
12:00 PM,33.8,32.0,93,29.86,0.5,East,3.5,-,0.00,Fog-Snow,Snow,100,2013-02-27 17:00:00
12:09 PM,33.8,32.0,93,29.86,1.0,East,3.5,-,0.01,Snow,Light Snow,90,2013-02-27 17:09:00
12:14 PM,33.8,33.8,100,29.86,0.8,Calm,Calm,-,0.01,Snow,Light Snow,0,2013-02-27 17:14:00
12:27 PM,32.0,32.0,100,29.85,0.2,East,3.5,-,0.03,Fog-Snow,Heavy Snow,100,2013-02-27 17:27:00
12:51 PM,32.0,32.0,100,29.89,0.5,SE,3.5,-,0.06,Fog-Snow,Snow,130,2013-02-27 17:51:00
1:06 PM,33.8,32.0,93,29.83,1.0,SE,9.2,16.1,0.01,Snow,Light Snow,130,2013-02-27 18:06:00
1:23 PM,33.8,32.0,93,29.82,1.2,ESE,8.1,-,0.02,Snow,Light Snow,120,2013-02-27 18:23:00
1:27 PM,33.8,32.0,93,29.82,1.0,ESE,9.2,-,0.03,Snow,Light Snow,120,2013-02-27 18:27:00
1:36 PM,33.8,32.0,93,29.82,0.5,SE,11.5,17.3,0.03,Fog-Snow,Snow,130,2013-02-27 18:36:00
1:51 PM,33.1,32.0,96,29.86,1.2,ESE,6.9,17.3,0.04,Snow,Light Snow,110,2013-02-27 18:51:00
1:59 PM,33.8,32.0,93,29.81,1.5,ESE,6.9,-,0.00,Snow,Light Snow,120,2013-02-27 18:59:00
2:04 PM,33.8,32.0,93,29.81,1.2,ENE,5.8,-,0.01,Snow,Light Snow,60,2013-02-27 19:04:00
2:06 PM,32.0,32.0,100,29.80,0.8,NE,4.6,-,0.01,Snow,Light Snow,50,2013-02-27 19:06:00
2:29 PM,32.0,32.0,100,29.80,0.5,NE,4.6,-,0.03,Fog-Snow,Snow,50,2013-02-27 19:29:00
2:51 PM,32.0,32.0,100,29.83,0.5,East,4.6,-,0.04,Fog-Snow,Snow,80,2013-02-27 19:51:00
2:59 PM,32.0,32.0,100,29.79,0.2,East,3.5,-,0.00,Fog-Snow,Snow,90,2013-02-27 19:59:00
3:22 PM,32.0,32.0,100,29.78,0.8,ESE,4.6,-,0.02,Snow,Light Snow,110,2013-02-27 20:22:00
3:44 PM,32.0,32.0,100,29.78,1.0,SE,5.8,-,0.03,Snow,Light Snow,130,2013-02-27 20:44:00
3:51 PM,32.0,32.0,100,29.82,1.0,East,4.6,-,0.03,Snow,Light Snow,100,2013-02-27 20:51:00
3:56 PM,32.0,32.0,100,29.77,0.5,ENE,4.6,-,0.00,Fog-Snow,Snow,70,2013-02-27 20:56:00
4:16 PM,32.0,32.0,100,29.76,0.5,East,3.5,-,0.01,Fog-Snow,Snow,90,2013-02-27 21:16:00
4:40 PM,32.0,32.0,100,29.75,1.0,ESE,3.5,-,0.03,Snow,Light Snow,120,2013-02-27 21:40:00
4:51 PM,32.0,32.0,100,29.79,1.2,ESE,4.6,-,0.03,Snow,Light Snow,120,2013-02-27 21:51:00
4:58 PM,32.0,32.0,100,29.75,1.0,East,3.5,-,0.00,Snow,Light Snow,80,2013-02-27 21:58:00
5:05 PM,32.0,32.0,100,29.75,0.5,East,3.5,-,0.00,Fog-Snow,Light Snow,90,2013-02-27 22:05:00
5:19 PM,32.0,30.2,93,29.74,1.0,ESE,6.9,-,0.00,Snow,Light Snow,120,2013-02-27 22:19:00
5:32 PM,32.0,30.2,93,29.73,0.8,ESE,10.4,-,0.00,Snow,Light Snow,110,2013-02-27 22:32:00
5:36 PM,32.0,30.2,93,29.74,1.2,ESE,9.2,-,0.00,Snow,Light Snow,110,2013-02-27 22:36:00
5:40 PM,32.0,30.2,93,29.74,2.0,ESE,6.9,-,0.00,Snow,Light Snow,120,2013-02-27 22:40:00
5:51 PM,32.0,30.9,96,29.78,2.0,ESE,5.8,-,0.00,Snow,Light Snow,120,2013-02-27 22:51:00
6:00 PM,32.0,30.2,93,29.73,1.8,ESE,5.8,-,0.01,Snow,Light Snow,120,2013-02-27 23:00:00
6:15 PM,32.0,30.2,93,29.74,2.5,ESE,5.8,-,0.01,Snow,Light Snow,120,2013-02-27 23:15:00
6:51 PM,32.0,30.0,92,29.77,2.5,SSE,10.4,-,0.01,Snow,Light Snow,150,2013-02-27 23:51:00
7:02 PM,32.0,28.4,87,29.72,3.0,SSE,10.4,-,0.01,Snow,Light Snow,150,2013-02-28 00:02:00
7:51 PM,32.0,28.9,88,29.75,1.8,SSE,8.1,-,0.01,Snow,Light Snow,160,2013-02-28 00:51:00
8:01 PM,32.0,28.4,87,29.71,2.5,South,10.4,-,0.00,Snow,Light Snow,170,2013-02-28 01:01:00
8:13 PM,30.2,28.4,93,29.71,1.8,SSE,10.4,-,0.00,Snow,Light Snow,160,2013-02-28 01:13:00
8:51 PM,30.9,30.0,96,29.74,1.8,SE,5.8,-,0.01,Snow,Light Snow,140,2013-02-28 01:51:00
9:04 PM,30.2,30.2,100,29.69,2.0,SE,5.8,-,0.00,Snow,Light Snow,140,2013-02-28 02:04:00
9:13 PM,30.2,30.2,100,29.69,1.8,SE,6.9,-,0.00,Snow,Light Snow,140,2013-02-28 02:13:00
9:37 PM,30.2,30.2,100,29.69,1.5,Calm,Calm,-,0.01,Snow,Light Snow,0,2013-02-28 02:37:00
9:45 PM,30.2,30.2,100,29.68,1.2,Calm,Calm,-,0.01,Snow,Light Snow,0,2013-02-28 02:45:00
9:46 PM,30.0,30.0,100,29.73,1.2,Calm,Calm,-,0.01,Snow,Light Snow,0,2013-02-28 02:46:00
9:52 PM,30.2,30.2,100,29.68,1.0,Calm,Calm,-,0.01,Snow,Light Snow,0,2013-02-28 02:52:00
10:04 PM,30.2,30.2,100,29.68,1.0,Calm,Calm,-,0.01,Snow,Light Snow,0,2013-02-28 03:04:00
10:12 PM,30.2,30.2,100,29.68,1.2,NNE,3.5,-,0.01,Snow,Light Snow,30,2013-02-28 03:12:00
10:44 PM,30.2,30.2,100,29.66,1.5,NE,3.5,-,0.02,Snow,Light Snow,50,2013-02-28 03:44:00
10:51 PM,30.0,30.0,100,29.71,1.2,Calm,Calm,-,0.02,Snow,Light Snow,0,2013-02-28 03:51:00
11:25 PM,30.2,30.2,100,29.66,1.5,Calm,Calm,-,0.01,Snow,Light Snow,0,2013-02-28 04:25:00
11:37 PM,30.2,30.2,100,29.66,1.2,Calm,Calm,-,0.01,Snow,Light Snow,0,2013-02-28 04:37:00
11:51 PM,30.0,30.0,100,29.70,1.8,Calm,Calm,-,0.01,Snow,Light Snow,0,2013-02-28 04:51:00